(P87) Hirao Observatory, Yamaguchi  (N33.954133 E132.094190)  Japan.
   Observer K. Yoshimoto. 0.20-m f/8.0 Ritchey-Chrétien + CCD + f/5.4 focal
   reducer.
(R95) Fiammetta Observatory, La Spezia  (N44.132645 E9.790450)  Italy.
(T08) ATLAS-MLO, Mauna Loa  (N19.536150 W155.576050)  US/Hawaii.  Observers
   L. Denneau, R. Siverd, J. Tonry, H. Weiland. Measurers L. Denneau, N.
   Erasmus, A. Fitzsimmons, J. Robinson, R. Siverd, J. Tonry, H. Weiland.
   0.5-m f/2.0 Schmidt + CCD.
(U94) iTelescope Observatory, Beryl Junction  (N37.737780 W113.697500)
   US/Utah.  Observer H. Sato. 0.51-m f/6.8 astrograph + f/4.5 focal reducer
   + CCD.
(W05) Tree Gate Farm Observatory, Starkville  (N33.347635 W88.732810).
   Observer J.-F. Gout. 0.5-m f/1.5 reflector + CMOS.
(W62) Comet Hunter Observatory2, New Ringgold  (N40.745185 W75.862390)
   US/Pennsylvania.  Observer J. Maikner. 0.30-m f/3.8 Riccardi-Honders + CCD.

Orbital elements:  A11tGky
   Perihelion 2025 Dec 2.352640 +/- 0.427 TT =  8:27:48.1 (JD 2461011.852640)
Epoch 2025 Oct 17.0 TT = JDT 2460965.5   Earth MOID: 0.4316   Ju: 0.8812
q   1.108883303 +/- 0.00373         (J2000 ecliptic)             AutoNEOCP
H   13.97 G 0.15                    Peri.  114.127869 +/- 0.50
z  -0.0008938660 +/- 0.0227         Node   140.500448 +/- 0.07
e   1.00099119 +/- 0.0253           Incl.  123.432217 +/- 0.15
83 of 88 observations 2025 Oct. 11-17; mean residual 0".45
Residuals in arcseconds: 
251011 T08  .33-  .44-    251013 G00  .51+  .95+    251017 C53  .81-  1.0+    
251011 T08  .04-  .83+    251013 G00  .23-  .31-    251017 C53  .62-  .87+    
251011 T08  .06-  .40+    251014 L01  .28-  .12-    251017 C53  .19-  .57+    
251011 T08  .49-  .13-    251014 L01  .30-  .10+    251017 C53  .12-  1.3+    
251011 J95  .57+  .13-    251014 L01  .27-  .04+    251017 B74  .44+  .50-    
251011 J95( .93+  .42+)   251014 L01  .18-  .06+    251017 B74  .06-  .61-    
251011 P87  .57-  .09+    251014 L01  .40-  .07+    251017 B74  .07+  .31-    
251011 J95  .39-  .05+    251015 L04  .52+  .04-    251017 L04  .12-  .02+    
251011 P87  .19+  1.2-    251015 L04  .43+  .27-    251017 L04  .07-  .21-    
251012 R95  .33+  .14-    251015 L04  .19+  .33-    251017 A77  .05+  .51-    
251012 R95  .35+  .24-    251015 W62  .02-  .58-    251017 L04  .02+  .41-    
251012 R95  .21+  .05-    251015 W62  .24-  .59-    251017 C53  .83+  1.1-    
251012 W05  .39+  .52+    251015 W62  .10-  .70-    251017 A77  .64+  .63-    
251012 W05  .30-  .20-    251016 L76  .34+  .29-    251017 A77  .18-  .33-    
251012 W05  .39-  .19-    251016 L76  .01-  .03+    251017 C53  .51-  .68+    
251012 T08  .26-  1.0+    251016 L76  .26-  .05-    251017 C53  .37-  .13-    
251012 T08  .15-  .34+    251016 L76  .25+  .07+    251017 M11  .66-  .00     
251012 T08  1.3+  .42-    251016 L76  .13-  .18+    251017 C53  .76-  .25+    
251012 T08  .44-  .15-    251016 L76  .17+  .11-    251017 M11  .01+  .16-    
251013 L99( .71-  2.3-)   251016 M26  .03-  .70-    251017 M11  .20+  .23-    
251013 L99( .96-  2.4-)   251016 M26  .03-  .01-    251017 C53  .63-  .91+    
251013 L99( .20-  1.9-)   251016 M26  .44+  .08+    251017 K19  .01-  .43-    
251013 718( 1.7-  .66-)   251016 U94  .37+  .04-    251017 K19  .35+  .47-    
251013 718  .26-  .17+    251016 U94  .01-  .23-    251017 C53  .25+  .78+    
251013 718  .14+  1.1+    251016 U94  .58+  .08+    251017 K19  .38+  .16-    
251013 C10  .20-  .19-    251016 P87  .03+  .44-    251017 W62  .08+  .15-    
251013 C10  .09-  .05-    251016 P87  .42+  .29+    251017 W62  .10+  .10-    
251013 C10  .45-  .19-    251016 P87  .58-  .23+    251017 W62  .07+  .18-    
251013 G00  .25-  .79+    251016 P87  .15+  .62-    
251013 G00  .43-  1.0+    251017 C53  1.1+  .06+    

Ephemerides (geocentric):
Date (UTC) HH   RA             Dec           delta  r     elong  mag " sig PA
---- --------  ------------   ------------  ------ ------ -----  --- --------
2025 10 17 22  11 58 44.882   +51 04 13.91  1.4236 1.3279  63.7 17.0 .192 154
2025 10 17 23  11 59 01.885   +51 05 21.66  1.4226 1.3275  63.7 17.0 .201 153
2025 10 18 00  11 59 18.924   +51 06 29.38  1.4216 1.3271  63.8 17.0 .209 153
2025 10 18 01  11 59 35.999   +51 07 37.09  1.4206 1.3268  63.8 17.0 .218 153
2025 10 18 02  11 59 53.111   +51 08 44.76  1.4196 1.3264  63.8 17.0 .227 153
2025 10 18 03  12 00 10.258   +51 09 52.41  1.4186 1.3261  63.8 17.0 .236 153
2025 10 18 04  12 00 27.443   +51 11 00.04  1.4176 1.3257  63.9 17.0 .245 153
2025 10 18 05  12 00 44.663   +51 12 07.64  1.4166 1.3254  63.9 17.0 .254 152
2025 10 18 06  12 01 01.920   +51 13 15.21  1.4156 1.3250  63.9 17.0 .264 152
2025 10 18 07  12 01 19.214   +51 14 22.75  1.4146 1.3246  63.9 17.0 .273 152
2025 10 18 08  12 01 36.545   +51 15 30.26  1.4136 1.3243  63.9 17.0 .283 152
2025 10 18 09  12 01 53.912   +51 16 37.74  1.4126 1.3239  64.0 17.0 .292 152
2025 10 18 10  12 02 11.316   +51 17 45.19  1.4116 1.3236  64.0 17.0 .302 152
2025 10 18 11  12 02 28.757   +51 18 52.61  1.4106 1.3232  64.0 17.0 .312 151
2025 10 18 12  12 02 46.235   +51 20 00.00  1.4096 1.3229  64.0 17.0 .322 151
2025 10 18 13  12 03 03.751   +51 21 07.36  1.4087 1.3225  64.1 17.0 .332 151
2025 10 18 14  12 03 21.304   +51 22 14.68  1.4077 1.3222  64.1 17.0 .343 151
2025 10 18 15  12 03 38.894   +51 23 21.97  1.4067 1.3218  64.1 17.0 .353 151
2025 10 18 16  12 03 56.521   +51 24 29.23  1.4057 1.3214  64.1 17.0 .364 151
2025 10 18 17  12 04 14.186   +51 25 36.45  1.4047 1.3211  64.1 17.0 .375 151
2025 10 18 18  12 04 31.889   +51 26 43.63  1.4037 1.3207  64.2 17.0 .386 151
2025 10 18 19  12 04 49.629   +51 27 50.78  1.4027 1.3204  64.2 17.0 .397 151
2025 10 18 20  12 05 07.407   +51 28 57.89  1.4017 1.3200  64.2 17.0 .408 150
2025 10 18 21  12 05 25.223   +51 30 04.97  1.4007 1.3197  64.2 17.0 .419 150
2025 10 18 22  12 05 43.077   +51 31 12.00  1.3998 1.3193  64.3 17.0 .430 150
2025 10 18 23  12 06 00.969   +51 32 18.99  1.3988 1.3190  64.3 17.0 .442 150
2025 10 19 00  12 06 18.899   +51 33 25.95  1.3978 1.3186  64.3 17.0 .454 150
2025 10 19 01  12 06 36.867   +51 34 32.86  1.3968 1.3183  64.3 17.0 .466 150
2025 10 19 02  12 06 54.874   +51 35 39.73  1.3958 1.3179  64.4 17.0 .477 150
2025 10 19 03  12 07 12.919   +51 36 46.56  1.3948 1.3176  64.4 17.0 .490 150
2025 10 19 04  12 07 31.003   +51 37 53.35  1.3939 1.3172  64.4 17.0 .502 150
2025 10 19 05  12 07 49.125   +51 39 00.09  1.3929 1.3169  64.4 17.0 .514 150
2025 10 19 06  12 08 07.286   +51 40 06.79  1.3919 1.3165  64.4 17.0 .527 149
2025 10 19 07  12 08 25.486   +51 41 13.44  1.3909 1.3162  64.5 17.0 .539 149
2025 10 19 08  12 08 43.724   +51 42 20.05  1.3899 1.3158  64.5 17.0 .552 149
2025 10 19 09  12 09 02.002   +51 43 26.61  1.3890 1.3155  64.5 16.9 .565 149
2025 10 19 10  12 09 20.318   +51 44 33.12  1.3880 1.3151  64.5 16.9 .578 149
2025 10 19 11  12 09 38.674   +51 45 39.59  1.3870 1.3148  64.6 16.9 .591 149
2025 10 19 12  12 09 57.069   +51 46 46.00  1.3860 1.3144  64.6 16.9 .605 149
2025 10 19 13  12 10 15.503   +51 47 52.37  1.3850 1.3141  64.6 16.9 .618 149
2025 10 19 14  12 10 33.977   +51 48 58.68  1.3841 1.3137  64.6 16.9 .632 149
2025 10 19 15  12 10 52.490   +51 50 04.94  1.3831 1.3134  64.6 16.9 .646 149
2025 10 19 16  12 11 11.042   +51 51 11.16  1.3821 1.3130  64.7 16.9 .660 149
2025 10 19 17  12 11 29.634   +51 52 17.31  1.3811 1.3127  64.7 16.9 .674 148
2025 10 19 18  12 11 48.267   +51 53 23.42  1.3802 1.3123  64.7 16.9 .688 148
2025 10 19 19  12 12 06.938   +51 54 29.47  1.3792 1.3120  64.7 16.9 .702 148
2025 10 19 20  12 12 25.650   +51 55 35.46  1.3782 1.3116  64.7 16.9 .717 148
2025 10 19 21  12 12 44.402   +51 56 41.40  1.3773 1.3113  64.8 16.9 .732 148